Flag for U.S.A. Weather past 2 weeks in Wichita, Kansas, U.S.A.

29 °F


Feels Like: 22 °F
Forecast: 24 / 42 °F
Wind: 7 mph from Southwest

Location: Wichita Mid-Continent Airport

Current Time: Nov 30, 2015 at 11:48:30 PM

Latest Report: Nov 30, 2015 at 10:53 PM

Visibility: 10 mi

Pressure: 30.03 "Hg

Humidity: 89%

Dew point: 26 °F

Location of WichitaLocation

Historic Weather in Wichita — Graph


Wichita temperature yesterday

Maximum temperature yesterday: 35 °F (at 2:02 PM)
Minimum temperature yesterday: 32 °F (at 8:53 PM)
Average temperature yesterday: 34 °F

Past Weeks' High & Low Weather Summary

High68 °F (Nov 25, 3:53 PM)100% (Nov 29, 8:53 PM)30.49 "Hg (Nov 29, 8:53 PM)
Low24 °F (Nov 22, 12:53 AM)17% (Nov 19, 2:53 PM)29.33 "Hg (Nov 17, 1:53 PM)
Average44 °F72%30.03 "Hg
* Reported Nov 15 9:53 PM — Nov 30 9:53 PM, Wichita, Weather by CustomWeather, © 2015

Note: Actual official high and low records may vary slightly from our data, if they occured in-between our weather recording intervals... More about our weather records


Wichita weather history for previous 24 hours

Time TempWeatherWind HumidityBarometerVisibility
9:53 PM
Mon, Nov 30
31 °FClear.9 mph89%30.03 "Hg10 mi
8:53 PM31 °FClear.7 mph85%30.02 "Hg10 mi
7:53 PM32 °FClear.9 mph85%30.02 "Hg10 mi
6:53 PM31 °FPassing clouds.7 mph85%30.01 "Hg10 mi
5:53 PM35 °FPassing clouds.7 mph78%30.01 "Hg10 mi
4:53 PM38 °FPartly sunny.14 mph70%30.00 "Hg10 mi
3:53 PM38 °FScattered clouds.9 mph73%29.98 "Hg10 mi
2:53 PM39 °FPartly sunny.15 mph76%29.98 "Hg10 mi
1:53 PM38 °FPartly sunny.12 mph79%29.99 "Hg10 mi
12:53 PM38 °FPartly sunny.13 mph79%29.99 "Hg10 mi
11:53 AM37 °FPartly sunny.12 mph93%30.02 "Hg10 mi
10:53 AM36 °FMostly cloudy.10 mph92%30.04 "Hg10 mi
9:53 AM35 °FMostly cloudy.7 mph92%30.04 "Hg10 mi
8:53 AM34 °FFog.6 mph97%30.03 "Hg6 mi
7:53 AM34 °FMostly cloudy.8 mph97%30.03 "Hg9 mi
6:53 AM34 °FMostly cloudy.8 mph97%30.05 "Hg10 mi
5:53 AM34 °FDrizzle. Mostly cloudy.6 mph100%30.05 "Hg4 mi
5:00 AM34 °FRain. Mostly cloudy.5 mphN/A30.02 "Hg4 mi
3:56 AM34 °FLight rain. Overcast.8 mphN/A30.00 "Hg4 mi
3:00 AM34 °FLight rain. Fog.8 mph97%30.02 "Hg6 mi
1:53 AM34 °FDrizzle. Mostly cloudy.5 mph97%30.09 "Hg8 mi
12:53 AM34 °FLight rain. Fog.7 mph97%30.11 "Hg4 mi
12:04 AM34 °FLight rain. Fog.6 mph97%30.09 "Hg4 mi
Weather by CustomWeather, © 2015

See weather overviewHow to use our weather pages